Flag for U.S.A. Weather past 2 weeks in Bridgewater, Massachusetts, U.S.A.

Now
35 °F

Overcast.


Feels Like: 32 °F
Forecast: 31 / 42 °F
Wind: 3 mph from North

Location: Taunton Municipal Airport

Current Time: Dec 22, 2014 at 12:04:55 AM

Latest Report: Dec 21, 2014 at 10:52 PM


Visibility: 10 mi

Pressure: 30.34 "Hg

Humidity: 85%

Dew point: 31 °F

Location of BridgewaterLocation

Historic Weather in Bridgewater — Graph

°F

Bridgewater temperature yesterday

Maximum temperature yesterday: 36 °F (at 6:52 AM)
Minimum temperature yesterday: 34 °F (at 11:01 AM)
Average temperature yesterday: 35 °F

Past Weeks' High & Low Weather Summary

 TemperatureHumidityPressure
High56 °F (Dec 9, 7:52 PM)97% (Dec 9, 7:52 PM)30.71 "Hg (Dec 9, 7:52 PM)
Low22 °F (Dec 8, 3:52 AM)27% (Dec 7, 6:52 PM)29.42 "Hg (Dec 10, 6:52 PM)
Average36 °F79%29.97 "Hg
* Reported Dec 6 10:52 PM — Dec 21 10:52 PM, Bridgewater, Weather by CustomWeather, © 2014

Note: Actual official high and low records may vary slightly from our data, if they occured in-between our weather recording intervals... More about our weather records

Advertising

Bridgewater weather history for previous 24 hours

 ConditionsComfort  
Time TempWeatherWind HumidityBarometerVisibility
10:52 PM
Dec 21
35 °FOvercast.3 mph85%30.34 "Hg10 mi
9:52 PM35 °FOvercast.5 mph85%30.34 "Hg10 mi
8:52 PM35 °FOvercast.No wind88%30.33 "Hg7 mi
7:52 PM35 °FOvercast.3 mph88%30.32 "Hg9 mi
6:52 PM34 °FLow clouds.5 mph92%30.32 "Hg9 mi
5:52 PM34 °FLow clouds.3 mph92%30.31 "Hg8 mi
4:52 PM34 °FLow clouds.3 mph92%30.30 "Hg8 mi
3:52 PM34 °FLow clouds.3 mph88%30.29 "Hg7 mi
2:52 PM34 °FLight rain. Fog.5 mph92%30.29 "Hg4 mi
1:52 PM34 °FLight snow. Fog.6 mph92%30.27 "Hg4 mi
12:52 PM34 °FLight snow. Fog.7 mph92%30.27 "Hg2 mi
12:02 PM34 °FLight snow. Fog.7 mph92%30.28 "Hg1 mi
11:01 AM34 °FLight snow. Fog.5 mph92%30.29 "Hg2 mi
9:52 AM36 °FLow clouds.5 mph92%30.31 "Hg9 mi
9:00 AM36 °FMostly cloudy.6 mph92%30.30 "Hg8 mi
7:52 AM36 °FLow clouds.No wind92%30.29 "Hg7 mi
6:52 AM36 °FMostly cloudy.No wind92%30.27 "Hg9 mi
5:52 AM35 °FLow clouds.No wind92%30.27 "Hg8 mi
4:52 AM35 °FMostly cloudy.No wind92%30.25 "Hg7 mi
3:52 AM35 °FLight rain. Fog.No wind92%30.26 "Hg5 mi
2:52 AM35 °FLight snow. Fog.3 mph92%30.27 "Hg6 mi
2:04 AM35 °FLight rain. Fog.3 mph92%30.27 "Hg5 mi
1:52 AM35 °FLight rain. Fog.3 mph92%30.27 "Hg6 mi
12:59 AM35 °FFog.3 mph92%30.26 "Hg5 mi
Weather by CustomWeather, © 2014

See weather overviewHow to use our weather pages